Dewpoint
10 10 9 8 8 9 9 9 9 9 10 10 10 10 9 9 10 10 10 10 10 10 10 10 10 11 11 10 9 9 9 8 7 7 8 9 8 8 8 8 7 7 7 8 8 9 8 7 7 5 -2 -7 -7 -10 -13 -11 -12 -11 -11 -11 -11 -11 -11 -12 -12 -13 -13 -12 -12 -12 -12 -12 -11 -11
9 10 9 8 8 9 9 8 9 10 10 11 10 10 9 10 10 9 10 10 10 10 10 10 11 11 10 9 9 9 9 7 6 8 9 9 8 7 7 6 6 7 7 8 8 9 8 4 0 -1 -6 -7 -8 -12 -11 -9 -9 -8 -7 -7 -7 -7 -7 -8 -8 -9 -9 -9 -9 -9 -8 -8 -7 -5
9 9 9 9 8 8 8 7 8 10 10 10 10 10 9 10 10 9 9 10 10 9 9 10 10 10 10 9 9 9 8 6 6 8 9 8 8 7 6 6 6 7 7 8 8 9 8 0 -7 -6 -6 -7 -9 -11 -8 -7 -7 -5 -4 -4 -4 -4 -4 -5 -5 -5 -6 -6 -5 -5 -4 -3 -2 -0
9 9 9 9 8 8 9 9 9 10 10 9 10 10 10 10 10 9 8 9 9 9 9 9 9 10 10 9 9 9 8 6 6 8 8 6 5 5 5 5 7 7 7 8 8 9 8 -1 -9 -6 -6 -9 -9 -9 -6 -5 -5 -3 -3 -2 -2 -2 -2 -2 -3 -3 -3 -3 -2 -2 -1 0 1 1
10 10 9 9 9 9 10 10 9 10 9 9 10 10 10 10 10 9 8 9 10 9 9 9 9 9 9 9 9 8 6 4 6 7 6 3 4 5 4 2 3 4 5 6 7 9 7 -1 -8 -5 -6 -9 -8 -7 -5 -4 -3 -2 -2 -1 -1 -1 -0 -0 -0 -0 -1 -0 0 1 1 2 2 2
9 10 9 9 10 9 9 9 8 10 10 10 10 10 10 10 10 9 8 9 10 9 9 9 9 9 9 8 9 7 3 1 5 6 3 1 4 6 5 0 -3 -1 -1 0 4 5 2 -4 -7 -5 -6 -8 -8 -7 -5 -3 -3 -2 -1 -0 -0 0 1 1 1 1 1 1 2 2 2 2 2 2
9 9 9 10 9 9 9 9 9 10 10 10 10 10 10 9 10 10 9 8 9 9 9 9 8 8 8 8 8 8 3 1 6 7 5 4 5 6 7 3 -4 -5 -3 -4 -3 -2 -4 -5 -5 -5 -6 -7 -8 -7 -6 -4 -3 -2 -1 -0 0 0 1 1 1 2 2 2 2 2 2 2 2 2
9 9 9 10 10 10 10 10 10 10 10 10 9 9 10 9 10 10 9 8 8 8 8 8 7 7 7 7 7 8 6 4 6 7 6 6 6 5 7 5 -1 -5 -4 -4 -4 -4 -5 -5 -5 -5 -5 -6 -8 -8 -7 -6 -4 -3 -2 -1 -1 -0 0 1 1 1 2 2 2 2 2 2 2 2
9 9 9 10 10 10 10 11 11 10 10 10 10 9 10 10 9 9 8 8 8 8 7 7 7 7 7 6 6 6 6 5 6 6 5 5 5 4 5 6 3 -4 -7 -7 -6 -5 -5 -5 -5 -5 -5 -6 -7 -7 -8 -7 -7 -6 -4 -3 -2 -1 -1 -0 0 1 1 2 2 2 2 2 2 2
10 10 10 10 11 10 10 11 10 10 10 10 10 9 10 9 9 8 8 8 7 7 7 7 7 7 7 6 6 5 6 5 4 5 5 4 4 4 3 5 3 -5 -13 -12 -12 -10 -8 -8 -7 -7 -7 -7 -7 -7 -7 -7 -7 -7 -7 -6 -5 -4 -3 -2 -1 -0 1 1 2 2 2 2 3 3
10 10 10 11 11 10 10 11 10 10 10 10 9 9 9 9 7 7 8 9 8 7 8 7 8 8 7 7 7 6 6 5 4 4 4 3 4 4 3 3 2 -6 -13 -11 -10 -9 -8 -7 -7 -6 -6 -6 -6 -6 -6 -6 -6 -6 -6 -6 -6 -6 -5 -4 -4 -2 -1 -0 0 1 1 2 2 3
9 10 10 10 11 10 10 10 10 9 10 9 9 9 9 8 7 7 8 9 8 7 8 8 8 8 8 7 7 6 6 6 5 4 4 4 4 4 4 4 3 1 -3 -4 -4 -3 -3 -3 -3 -3 -3 -2 -2 -3 -3 -3 -3 -4 -4 -4 -5 -5 -5 -5 -4 -4 -3 -2 -2 -1 -0 1 1 2
10 10 10 10 10 10 9 9 9 9 9 9 8 9 9 7 7 7 8 8 8 7 7 8 8 8 8 7 8 8 7 7 6 5 5 4 4 4 4 3 4 4 3 2 2 1 1 0 0 -1 -1 -1 -1 -1 -1 -2 -2 -2 -3 -3 -3 -4 -4 -4 -4 -4 -4 -3 -3 -2 -1 -1 0 1
11 10 10 10 10 9 9 9 9 8 8 9 8 9 9 8 7 8 8 8 7 7 7 8 7 7 8 7 7 8 8 7 7 6 6 5 5 5 5 4 4 4 4 4 4 3 3 3 3 3 2 2 2 2 2 1 -0 -1 -1 -1 -2 -2 -2 -2 -2 -2 -2 -2 -2 -2 -1 -1 -1 -0
11 10 9 9 9 9 9 9 9 8 7 9 9 9 9 9 8 9 9 8 7 7 7 7 6 6 7 7 7 8 8 8 8 8 8 6 5 6 6 6 5 4 4 4 3 4 4 4 4 4 4 4 4 4 4 3 3 3 3 3 3 3 3 3 3 3 3 3 3 3 3 3 2 2
10 9 8 9 9 9 9 9 9 9 9 9 9 8 8 8 9 9 8 7 8 8 7 6 6 6 7 7 7 7 7 8 8 9 8 7 7 6 6 6 6 5 5 4 5 5 5 5 5 6 6 5 5 4 5 4 4 5 5 5 5 5 5 5 5 5 5 4 4 4 4 4 4 4
9 9 9 9 9 8 8 8 8 8 8 7 6 6 6 7 9 9 7 6 7 8 7 7 7 7 7 8 8 7 7 8 8 8 8 8 7 7 7 7 6 5 5 6 6 7 6 6 6 6 6 6 5 5 5 5 5 5 5 5 5 5 5 4 4 3 2 1 1 1 1 1 2 3
10 10 9 9 9 7 6 6 6 6 5 5 5 5 5 5 6 7 6 6 6 6 7 8 8 7 7 7 8 7 7 7 7 7 7 7 6 7 7 7 6 6 6 7 7 7 6 6 6 6 6 6 6 5 5 4 5 5 5 5 4 4 3 2 1 0 -0 -0 -1 -1 -0 -0 0 1
9 10 10 9 8 7 5 5 5 6 7 7 7 6 5 5 5 5 5 5 5 4 5 6 6 6 6 6 7 6 6 6 6 5 5 5 6 6 7 6 6 6 6 6 7 7 6 6 6 6 6 6 6 5 4 4 4 4 4 3 2 2 1 0 0 1 1 0 0 1 1 0 -0 -0
9 9 10 9 8 7 6 5 6 6 7 8 7 5 4 3 3 3 2 2 2 2 2 3 3 4 5 5 5 5 5 6 5 5 6 6 6 7 7 7 7 7 6 5 5 6 6 6 6 6 6 6 5 5 4 4 3 3 2 2 2 1 1 1 2 2 2 2 1 1 1 -0 -1 -2
9 9 9 9 8 7 6 5 6 5 6 7 6 3 1 1 1 1 1 1 1 1 1 2 3 4 4 5 5 5 5 5 5 6 7 7 7 7 7 6 7 7 6 4 4 4 5 6 6 5 5 5 5 5 4 3 2 2 1 1 1 1 1 1 2 2 2 2 1 0 -1 -1 -2 -3
9 9 9 8 7 6 5 4 4 5 6 7 7 5 3 2 1 1 1 1 1 2 2 3 4 4 4 5 5 5 5 4 4 5 6 6 6 7 6 6 6 6 5 4 3 4 5 5 5 4 4 4 5 4 4 3 2 1 1 1 0 -0 -0 0 1 1 1 0 -0 -1 -2 -3 -3 -4
8 7 7 6 5 4 3 3 3 3 5 7 7 7 7 5 2 1 2 3 4 4 4 3 4 4 5 5 5 5 4 4 4 5 6 6 6 5 5 5 5 5 5 4 3 4 4 4 3 2 2 3 4 4 3 2 2 1 1 1 0 -1 -1 -0 -0 -0 -0 -1 -2 -2 -3 -3 -4 -4
6 6 7 5 4 3 3 2 2 2 3 5 6 7 7 6 4 4 4 5 6 6 5 5 5 5 6 6 5 5 5 5 5 5 5 5 4 4 4 4 4 4 4 3 3 4 3 2 1 1 0 1 2 3 2 2 1 0 -0 -1 -1 -2 -2 -2 -1 -2 -2 -2 -2 -2 -3 -3 -3 -2
5 6 6 4 3 2 2 2 2 2 2 3 5 6 7 7 6 6 6 7 7 7 6 5 5 5 5 5 4 4 4 4 3 3 3 2 3 3 3 3 3 4 3 2 3 3 2 0 -1 -0 -1 -1 -1 1 1 1 0 -0 -1 -2 -2 -2 -2 -1 -1 -2 -3 -3 -2 -2 -2 -2 -2 -2
4 5 4 3 3 3 3 3 3 3 4 4 5 6 7 7 6 6 6 5 5 4 4 4 4 3 2 2 2 2 1 0 0 -0 -1 -1 0 2 3 2 2 3 2 1 0 1 1 0 -1 -2 -1 -1 -3 -3 -1 0 -0 -1 -1 -1 -1 -0 -0 -1 -0 -0 -1 -2 -2 -2 -2 -2 -2 -2
4 4 3 3 3 3 4 4 4 5 5 5 5 5 6 6 5 4 3 3 3 2 1 2 3 2 2 2 2 2 1 -0 -2 -3 -3 -3 -2 -1 2 2 1 1 1 -1 -4 -5 -2 -0 -2 -3 -1 -0 -3 -5 -3 -2 -2 -2 -2 -2 -1 -0 -0 -1 -1 -0 -0 -1 -1 -1 -1 -1 -1 -2
5 5 5 5 4 4 5 5 5 5 5 4 4 4 4 2 1 -0 -0 1 1 -0 -1 0 1 2 2 2 2 2 0 -1 -3 -4 -4 -4 -4 -3 0 2 2 0 -0 -1 -3 -4 -2 -1 -2 -3 -2 -1 -2 -4 -4 -4 -3 -3 -2 -2 -2 -1 -1 -2 -2 -1 -1 -1 -1 -1 -1 -1 -2 -2
5 5 5 5 4 4 4 4 4 3 3 2 1 -0 -1 -2 -3 -3 -2 -2 -2 -2 -1 -0 -0 -0 0 1 1 -1 -2 -2 -2 -3 -3 -4 -4 -4 -2 -0 -1 -2 -4 -4 -2 -2 -2 -2 -1 -1 -2 -3 -3 -3 -4 -5 -4 -3 -2 -3 -3 -2 -2 -2 -2 -2 -2 -2 -2 -2 -2 -1 -1 -2
4 4 4 3 2 2 2 1 1 1 0 -0 -1 -2 -2 -2 -3 -2 -2 -3 -2 -2 -1 -1 -1 -1 -1 -1 -2 -3 -2 -1 -0 -0 -1 -2 -2 -3 -3 -3 -3 -3 -4 -5 -3 -2 -2 -2 -2 -2 -2 -3 -3 -3 -3 -3 -3 -2 -2 -2 -3 -2 -2 -2 -2 -3 -2 -2 -2 -2 -2 -2 -2 -2
1 1 1 1 1 0 0 0 0 0 -1 -1 -1 -1 -2 -3 -3 -4 -4 -5 -5 -3 -3 -3 -4 -4 -5 -4 -4 -3 -1 -1 -1 -1 -1 -2 -2 -2 -3 -3 -2 -2 -2 -3 -3 -3 -2 -1 -1 -2 -2 -2 -2 -2 -2 -2 -2 -2 -2 -3 -3 -3 -3 -3 -3 -3 -3 -3 -4 -3 -3 -3 -3 -3
0 -0 -0 -1 -1 -1 -1 -1 -1 -1 -2 -2 -2 -3 -3 -4 -4 -4 -5 -6 -8 -7 -6 -5 -5 -5 -4 -3 -1 -1 -1 -1 -1 -1 -2 -2 -3 -3 -3 -4 -3 -2 -2 -2 -2 -3 -4 -3 -3 -3 -3 -3 -2 -2 -2 -3 -3 -3 -3 -3 -4 -4 -4 -4 -5 -5 -5 -5 -5 -5 -5 -5 -4 -4
-1 -1 -1 -1 -2 -2 -1 -1 -1 -1 -2 -2 -2 -2 -2 -3 -3 -4 -5 -7 -9 -9 -8 -6 -4 -2 -1 -1 -1 -1 -1 -1 -2 -2 -2 -3 -3 -3 -4 -4 -4 -4 -4 -4 -3 -3 -5 -5 -5 -5 -6 -5 -4 -4 -4 -4 -4 -4 -5 -5 -6 -6 -6 -6 -6 -6 -6 -6 -6 -6 -6 -6 -6 -6
-3 -2 -2 -2 -2 -2 -1 -1 -1 -1 -1 -1 -1 -1 -1 -2 -2 -3 -4 -7 -9 -9 -8 -6 -4 -2 -2 -2 -2 -2 -2 -2 -3 -3 -2 -3 -3 -4 -5 -5 -5 -5 -5 -5 -4 -4 -5 -5 -4 -4 -5 -5 -6 -6 -6 -6 -6 -6 -6 -6 -6 -7 -7 -7 -7 -7 -8 -8 -7 -7 -7 -7 -7 -6
-3 -2 -2 -1 -1 -1 -1 -1 -0 -0 -0 -0 -0 -0 -0 -1 -1 -2 -4 -6 -7 -7 -6 -5 -3 -2 -2 -2 -2 -2 -3 -3 -3 -3 -4 -4 -4 -5 -5 -5 -6 -5 -5 -5 -5 -5 -5 -4 -3 -3 -3 -3 -5 -6 -7 -8 -7 -7 -7 -7 -6 -6 -7 -7 -7 -7 -7 -7 -6 -6 -6 -6 -6 -6
-3 -1 -1 -0 1 1 1 1 1 1 1 1 0 0 -0 -1 -1 -1 -3 -5 -5 -4 -4 -4 -3 -2 -2 -2 -3 -3 -3 -4 -4 -4 -4 -5 -5 -6 -6 -5 -5 -5 -5 -5 -6 -6 -6 -5 -4 -4 -3 -3 -4 -5 -6 -8 -8 -8 -7 -7 -7 -7 -7 -6 -6 -7 -7 -6 -6 -7 -7 -6 -6 -6
-2 -1 -0 -0 0 0 1 1 1 1 1 1 0 0 -0 -1 -1 -1 -2 -3 -3 -3 -3 -3 -3 -3 -3 -3 -3 -3 -4 -4 -4 -4 -5 -5 -5 -5 -5 -5 -5 -5 -5 -6 -6 -6 -7 -7 -7 -7 -6 -7 -7 -6 -6 -7 -8 -9 -9 -8 -8 -8 -7 -6 -7 -7 -7 -7 -7 -7 -8 -8 -7 -7
-2 -1 -1 -1 -1 -1 -0 -0 -0 -0 -0 -0 -0 -0 -0 -1 -1 -1 -2 -2 -3 -3 -3 -3 -3 -3 -3 -3 -3 -4 -4 -4 -4 -5 -5 -5 -6 -6 -5 -5 -5 -5 -6 -6 -7 -7 -8 -8 -7 -7 -7 -7 -8 -7 -7 -8 -8 -9 -10 -10 -9 -9 -8 -7 -7 -7 -7 -7 -8 -8 -8 -8 -8 -8
-2 -2 -2 -2 -1 -1 -1 -1 -1 -1 -1 -1 -1 -1 -2 -2 -2 -2 -2 -2 -3 -3 -3 -3 -3 -3 -3 -4 -4 -4 -5 -5 -5 -5 -5 -6 -6 -6 -6 -6 -6 -6 -6 -6 -7 -9 -8 -7 -7 -7 -7 -7 -7 -8 -9 -9 -8 -8 -9 -10 -10 -10 -9 -8 -8 -8 -8 -8 -8 -8 -8 -9 -8 -8
-3 -2 -2 -2 -2 -2 -2 -2 -2 -2 -1 -2 -2 -2 -2 -2 -2 -2 -2 -2 -3 -3 -3 -3 -3 -4 -4 -5 -5 -5 -5 -5 -5 -5 -5 -6 -6 -6 -7 -7 -7 -6 -6 -7 -8 -7 -6 -6 -8 -10 -10 -9 -9 -9 -9 -9 -9 -9 -9 -10 -11 -10 -10 -9 -9 -8 -8 -8 -8 -8 -9 -9 -8 -8
-3 -3 -3 -3 -3 -3 -3 -2 -2 -2 -2 -2 -2 -2 -2 -2 -2 -2 -2 -3 -3 -3 -3 -4 -4 -4 -5 -5 -5 -5 -5 -5 -5 -5 -5 -6 -6 -7 -7 -7 -7 -8 -8 -8 -8 -7 -6 -7 -11 -13 -11 -9 -9 -9 -9 -9 -10 -10 -10 -11 -11 -10 -10 -10 -9 -9 -9 -9 -8 -8 -8 -8 -8 -8
-4 -4 -3 -3 -3 -3 -3 -3 -2 -2 -2 -2 -2 -2 -2 -2 -2 -2 -2 -3 -3 -3 -4 -4 -4 -5 -5 -5 -6 -7 -6 -6 -5 -5 -6 -7 -7 -8 -8 -8 -9 -9 -9 -9 -9 -8 -7 -8 -9 -9 -9 -9 -9 -9 -10 -11 -11 -11 -11 -11 -10 -10 -10 -11 -10 -9 -9 -8 -8 -8 -8 -8 -8 -8
-5 -4 -4 -3 -3 -3 -3 -3 -3 -3 -2 -2 -2 -2 -2 -3 -3 -3 -3 -3 -4 -4 -5 -5 -5 -6 -6 -6 -6 -6 -6 -6 -6 -6 -7 -7 -8 -9 -9 -10 -11 -10 -9 -9 -9 -8 -8 -8 -9 -9 -9 -10 -10 -9 -10 -10 -10 -11 -11 -11 -10 -10 -11 -11 -11 -10 -10 -9 -8 -8 -9 -9 -9 -9
-5 -5 -4 -4 -3 -3 -3 -3 -3 -3 -3 -3 -3 -3 -3 -3 -3 -4 -4 -4 -5 -5 -5 -6 -6 -6 -6 -7 -7 -7 -6 -7 -7 -7 -8 -9 -9 -9 -10 -11 -12 -11 -10 -9 -9 -9 -9 -9 -9 -10 -10 -10 -10 -10 -10 -10 -11 -11 -11 -11 -10 -10 -11 -11 -11 -11 -12 -12 -9 -9 -10 -10 -9 -9
-5 -5 -5 -5 -4 -3 -3 -3 -3 -3 -3 -3 -3 -3 -3 -4 -4 -4 -4 -5 -5 -5 -5 -5 -6 -6 -6 -6 -7 -7 -7 -7 -8 -8 -9 -9 -9 -9 -10 -10 -11 -11 -11 -9 -9 -9 -10 -10 -10 -10 -11 -10 -10 -11 -11 -11 -11 -11 -11 -11 -11 -10 -11 -12 -11 -10 -12 -13 -11 -10 -10 -10 -10 -10
Wind_Speed
16 17 19 19 19 19 20 20 18 18 15 13 14 15 13 12 13 14 14 15 17 16 14 13 11 11 12 12 11 9 8 9 9 8 7 7 7 8 9 10 10 10 11 11 11 11 9 9 13 13 11 12 11 10 11 10 9 9 9 8 8 7 6 6 5 5 4 3 3 2 2 2 3 4
17 17 17 17 17 19 21 20 19 17 15 13 14 15 14 11 12 15 14 13 14 15 15 14 13 12 11 11 10 8 8 9 9 8 8 9 8 7 9 10 10 11 11 11 12 13 11 10 12 12 13 12 11 11 11 10 10 10 9 8 7 6 6 5 4 4 3 2 2 1 2 3 3 4
17 17 17 17 17 18 20 20 19 18 16 15 14 13 14 13 13 14 13 12 12 13 16 14 12 13 11 9 9 7 7 9 10 9 9 9 8 7 9 10 10 11 10 10 13 14 12 11 12 13 13 12 11 12 11 11 11 10 9 8 7 6 5 4 4 3 3 2 1 1 2 2 3 4
17 17 17 18 18 19 21 20 19 19 17 16 15 13 13 12 10 10 11 12 11 12 15 13 11 13 11 9 10 8 8 9 9 7 7 8 7 7 9 10 10 10 10 10 13 14 13 13 13 13 13 12 12 12 12 12 11 10 9 8 7 6 5 4 3 3 2 2 1 1 1 1 2 3
17 15 16 18 20 20 20 20 20 19 17 17 16 15 13 11 10 10 11 12 13 13 13 11 12 14 12 11 12 10 8 9 9 8 8 7 6 5 7 10 10 9 9 10 12 13 14 13 13 14 13 12 13 13 12 12 10 9 8 7 6 5 4 4 3 3 3 2 2 2 2 3 4 5
16 16 16 17 19 19 19 21 20 18 16 17 16 14 13 13 12 11 10 14 17 17 15 13 14 14 12 12 13 10 7 7 9 9 8 7 8 6 6 8 10 9 9 9 10 12 12 12 13 13 13 12 13 13 12 11 10 9 8 7 6 6 5 5 4 4 4 4 4 5 5 6 7 8
17 18 16 16 18 18 18 19 18 16 16 17 15 13 14 15 14 10 10 13 17 18 17 15 14 14 12 12 12 10 6 7 9 9 8 7 9 9 8 7 8 9 8 8 9 10 10 11 11 12 12 12 12 12 12 11 10 9 8 8 7 7 7 7 6 6 7 7 7 8 9 9 10 11
18 18 17 17 18 18 17 17 16 17 17 15 14 15 15 15 14 12 11 12 15 16 16 15 13 13 13 12 12 10 8 8 10 10 9 9 10 10 9 8 7 8 8 8 8 9 10 10 10 11 11 11 10 11 11 11 10 9 9 9 9 9 9 9 9 9 9 10 11 11 12 13 13 14
17 16 16 16 16 16 17 17 16 16 16 15 15 16 15 14 15 14 13 14 15 14 15 14 13 13 12 11 11 11 10 10 10 10 9 9 10 10 9 9 8 6 6 8 9 10 10 10 10 10 10 10 10 10 10 11 11 11 11 11 10 11 11 11 11 12 12 13 13 14 15 16 16 17
17 15 15 15 16 17 16 16 15 14 14 14 15 15 14 14 16 17 15 16 17 15 14 14 13 13 13 12 12 11 10 10 11 11 9 10 10 10 10 11 11 8 6 7 8 9 9 10 10 10 10 10 11 11 11 11 11 12 12 12 12 13 13 13 14 14 15 16 16 17 18 19 19 20
19 17 15 15 15 15 15 14 14 14 13 13 13 12 11 14 18 20 17 15 17 16 15 14 13 13 13 13 12 11 10 10 10 11 11 10 11 11 11 11 11 8 7 7 7 7 8 8 8 9 9 10 10 11 11 12 12 13 13 13 14 14 15 16 16 17 18 18 19 20 21 22 22 22
15 15 14 14 14 14 14 14 14 14 13 13 12 10 11 13 17 20 18 14 15 15 13 13 14 13 13 12 11 11 11 11 10 11 11 11 12 12 12 12 11 9 8 7 7 7 7 7 8 9 10 11 11 12 12 13 13 14 14 15 15 16 17 18 19 20 20 21 22 23 24 24 25 25
9 10 12 14 14 13 13 12 12 14 14 12 11 10 11 14 17 19 18 15 15 15 13 13 14 13 12 12 12 11 12 12 11 11 11 11 12 12 12 12 12 10 8 7 7 9 9 9 10 11 11 11 11 12 14 15 15 16 16 17 18 18 20 20 21 22 23 24 25 26 27 27 28 28
8 9 10 12 13 12 12 12 11 13 14 12 10 10 12 15 17 18 17 15 14 15 14 12 12 13 12 12 13 13 12 12 11 12 13 13 12 13 13 13 13 13 10 9 9 10 11 10 8 9 11 11 10 11 14 16 17 18 18 18 19 20 21 22 23 24 25 26 27 27 28 29 29 30
8 9 9 10 12 11 12 12 11 12 14 13 11 11 12 13 13 14 15 14 11 11 11 10 10 12 11 12 13 13 13 13 12 12 13 13 13 15 15 14 15 16 15 12 11 11 11 9 8 7 9 12 14 15 15 15 14 15 16 17 18 20 21 22 23 23 23 23 24 24 24 25 26 26
6 6 7 9 11 11 11 12 12 12 13 13 12 12 14 14 12 11 12 12 9 7 7 8 10 10 9 11 12 11 11 11 11 11 11 11 12 15 16 15 16 17 15 13 12 11 10 11 11 10 7 10 14 15 14 14 14 16 15 15 16 16 17 18 18 17 17 16 17 17 18 19 19 20
5 6 8 9 10 11 10 10 11 12 13 13 11 11 13 14 14 12 12 12 11 7 5 6 9 10 8 7 9 10 9 8 8 10 11 11 12 12 10 10 13 15 14 12 12 11 10 11 13 11 8 10 13 13 14 17 19 18 15 13 13 13 12 12 12 12 12 12 13 14 15 16 16 17
6 7 8 9 10 12 12 12 12 12 12 12 12 12 12 13 13 12 12 12 11 9 7 5 7 9 8 7 8 10 11 10 11 11 11 12 13 12 9 8 11 14 13 12 11 9 10 11 11 9 11 13 11 10 12 14 15 14 12 11 11 10 10 10 10 12 13 13 14 15 15 16 16 17
8 9 8 9 12 14 15 16 16 14 12 11 11 11 10 10 10 10 10 10 9 9 10 9 7 8 10 11 12 12 12 11 11 11 11 11 11 11 8 8 11 12 10 10 9 7 7 9 9 9 11 11 9 10 10 10 11 10 9 9 9 10 11 11 12 13 14 14 15 15 16 16 16 16
9 11 12 12 13 15 17 16 15 14 12 9 9 9 8 8 8 7 7 7 7 7 8 9 9 10 10 11 12 12 11 9 8 7 8 9 10 8 5 6 8 7 5 5 5 4 4 5 5 5 6 6 6 8 9 9 9 8 9 10 10 11 12 12 12 12 13 14 14 14 14 14 14 14
9 12 14 15 15 17 17 15 13 12 11 8 8 8 8 6 5 5 4 4 5 7 7 8 9 10 10 10 10 10 9 8 7 6 6 7 8 5 3 4 7 6 4 3 3 4 4 3 2 1 3 4 3 5 7 7 7 8 9 10 10 10 10 10 10 11 11 12 12 11 11 11 11 11
10 11 12 13 13 13 13 12 11 11 10 9 7 6 6 4 3 4 4 4 5 7 8 8 9 9 9 9 9 9 8 8 8 8 7 6 4 2 3 4 6 6 4 3 4 5 5 3 3 3 3 3 3 4 6 7 7 8 9 10 10 10 9 8 8 8 9 9 9 9 10 10 10 10
9 10 8 8 10 11 12 11 9 8 8 6 5 5 4 3 3 3 4 5 6 7 9 9 8 8 9 9 8 8 8 7 7 7 6 5 4 3 2 2 4 5 5 4 4 6 5 3 3 3 3 3 5 6 5 6 6 6 7 10 11 11 9 8 6 6 7 7 7 8 9 9 10 9
5 7 8 11 13 12 11 9 7 6 6 4 3 4 4 4 3 3 5 6 7 8 9 8 8 8 8 7 7 8 8 7 7 7 7 6 5 4 1 3 3 4 5 4 4 7 5 1 3 2 2 3 5 5 3 1 3 4 6 10 14 14 11 9 8 7 7 6 7 7 8 8 9 8
4 7 9 11 10 8 6 5 4 3 3 4 4 4 5 5 2 3 5 7 7 7 7 6 6 6 5 5 6 7 8 8 8 8 8 8 7 6 5 3 4 5 6 5 6 8 5 0 3 4 2 4 5 5 6 4 4 6 7 10 12 12 9 7 7 9 8 7 6 5 6 7 7 7
6 8 8 8 6 4 4 5 6 6 5 5 6 5 5 5 3 4 4 4 4 3 3 3 2 1 1 1 2 4 5 5 7 8 8 9 9 9 8 8 8 6 6 5 8 10 5 0 5 6 1 3 5 6 7 6 1 2 5 8 8 6 6 6 7 8 9 9 7 8 9 9 7 7
7 8 8 9 9 9 10 10 9 7 6 6 6 5 6 5 4 5 5 5 4 3 3 4 4 4 3 2 2 1 1 2 4 5 6 7 7 8 9 10 10 8 5 1 3 6 4 2 4 5 1 2 4 5 5 3 3 3 1 5 6 5 5 6 7 7 8 8 10 13 13 12 10 9
3 4 6 7 8 7 8 8 7 5 6 7 5 4 4 4 5 6 6 6 5 4 3 3 5 6 5 4 4 3 2 2 3 3 4 5 6 7 9 11 9 6 3 2 3 2 6 4 1 2 2 0 3 4 4 2 2 2 1 2 5 6 5 5 6 7 7 7 10 13 14 14 14 13
2 2 4 4 4 3 3 4 4 3 3 3 4 5 5 5 5 5 4 5 4 4 2 3 4 6 6 7 7 5 1 2 4 3 2 3 4 4 5 7 7 7 6 4 5 6 4 4 2 1 1 1 2 2 2 3 3 4 3 2 5 6 6 5 6 7 7 7 8 9 10 11 12 12
1 1 2 3 3 1 1 1 1 2 2 3 4 5 4 4 5 5 5 4 2 2 4 4 4 5 6 7 7 4 3 4 3 3 3 3 3 3 2 2 2 2 2 4 6 7 4 3 3 2 2 1 1 1 1 1 2 4 5 4 4 5 5 5 6 7 8 8 8 8 9 9 11 13
4 5 5 4 4 5 6 4 3 3 3 2 2 4 5 5 5 4 3 1 3 5 7 7 7 8 6 4 3 3 5 5 5 5 5 4 4 4 4 4 5 6 5 4 4 5 6 5 4 3 3 2 1 1 2 2 2 3 4 4 4 5 6 6 7 7 8 9 9 10 9 10 12 13
4 5 5 6 8 8 7 6 5 5 6 5 5 5 4 4 3 2 3 4 5 7 8 8 7 5 4 5 6 6 6 5 5 6 6 5 5 4 4 4 3 4 4 5 5 3 5 7 5 4 4 5 4 3 2 2 2 2 3 4 4 5 6 7 8 8 10 10 10 10 10 10 11 12
6 5 4 5 7 7 6 5 5 5 5 4 3 2 2 2 3 4 5 5 5 7 7 7 7 6 6 7 6 6 6 6 6 6 6 6 5 4 3 3 3 2 3 3 2 3 6 7 6 7 8 7 7 5 3 2 2 3 3 5 6 6 7 7 8 9 11 11 11 12 12 11 11 11
7 7 6 6 6 5 3 2 2 1 1 1 2 2 3 3 4 5 5 4 4 6 7 8 8 7 6 5 5 4 4 4 5 7 7 6 5 4 4 3 3 3 2 2 2 0 4 4 4 5 6 5 4 4 4 3 2 3 4 5 6 6 7 8 8 10 11 11 12 12 12 11 11 11
3 4 3 3 3 2 1 2 2 3 3 4 4 4 5 5 6 7 6 4 2 4 6 7 8 8 6 5 4 4 4 4 5 5 5 4 4 3 4 4 4 3 3 2 2 1 2 3 2 1 2 1 1 1 4 4 4 3 3 5 7 7 8 9 9 10 10 10 11 11 11 11 11 11
3 2 2 3 3 3 3 3 4 4 4 4 4 5 6 5 6 6 4 2 2 1 1 4 5 5 4 4 4 4 4 4 4 4 4 5 5 5 6 6 5 4 4 3 2 2 1 1 2 3 5 5 5 5 3 7 9 6 5 6 7 8 9 9 9 9 9 9 10 10 11 11 11 12
8 6 5 5 4 4 3 3 4 3 2 1 2 3 4 3 3 3 1 3 3 5 5 5 5 4 4 5 5 4 5 5 4 4 4 5 6 8 7 6 5 5 4 3 2 2 2 2 1 1 2 4 4 4 4 9 9 6 7 7 8 9 9 9 9 9 9 9 10 10 11 12 12 12
8 8 6 6 5 5 5 4 4 3 2 2 2 2 2 2 2 1 1 1 3 5 5 5 5 5 5 5 5 5 5 6 6 6 5 5 6 7 6 5 5 5 3 2 2 1 1 2 2 2 3 4 3 2 4 5 4 5 9 11 13 13 11 9 9 9 9 10 11 11 11 12 12 12
8 7 6 6 6 6 5 4 4 3 3 3 3 2 2 2 1 1 0 1 2 3 3 3 4 5 5 5 4 4 4 5 6 6 6 6 6 5 5 4 3 3 3 3 3 3 2 1 1 2 3 3 2 3 3 3 4 6 10 14 16 15 12 10 9 10 10 10 11 11 12 11 11 11
8 8 7 7 7 5 4 4 4 4 2 2 1 1 1 0 1 1 2 2 2 3 3 4 5 5 5 4 4 5 6 6 5 6 6 6 7 7 7 5 2 1 2 1 3 6 4 1 3 1 1 2 3 4 4 3 3 6 9 14 18 17 14 12 10 9 9 10 10 11 12 11 11 11
10 9 8 8 7 6 5 4 4 4 3 2 1 1 1 2 5 6 5 4 4 4 4 4 5 5 5 5 4 5 6 6 5 5 6 6 8 9 8 5 3 2 2 1 2 4 3 3 2 5 6 6 5 5 5 2 1 4 8 13 17 16 14 14 12 10 9 10 10 10 11 11 11 11
10 9 8 7 7 6 5 4 4 3 3 3 2 1 0 2 4 5 5 4 4 4 4 4 5 5 5 5 5 5 5 5 5 6 5 5 6 6 5 4 3 3 3 3 2 2 3 3 4 7 8 7 6 5 4 3 3 5 7 9 12 13 12 13 13 12 12 13 11 10 10 11 11 11
10 9 9 8 7 6 5 4 4 3 3 3 3 3 3 2 3 4 3 3 4 4 3 3 4 4 4 4 4 5 6 5 6 6 6 5 5 5 3 4 4 4 3 2 2 3 4 4 4 4 4 4 4 5 4 3 3 5 6 7 9 10 10 11 12 13 14 15 14 11 11 12 11 11
10 9 9 8 7 7 6 5 4 3 3 3 3 3 3 2 3 3 3 3 3 3 3 4 4 4 4 4 4 4 5 5 6 6 6 5 5 5 3 4 5 5 4 3 3 3 3 4 4 4 4 4 4 4 4 3 3 4 6 7 8 8 8 9 11 12 14 16 14 12 13 14 14 14
9 8 8 8 7 6 6 6 6 4 4 3 3 3 2 2 2 3 3 3 3 3 3 4 5 4 3 4 5 5 5 5 5 5 5 4 4 4 4 4 4 4 4 4 4 3 3 3 4 4 4 4 4 4 4 4 3 3 5 8 8 8 8 8 9 11 13 14 12 12 14 15 16 16
Wind_Direction
227 228 223 223 223 216 211 209 211 214 211 215 216 200 195 197 190 190 193 193 194 190 187 192 190 184 190 197 194 193 200 202 201 189 185 206 216 214 215 214 215 214 215 216 205 199 203 191 186 191 189 182 180 175 169 167 168 167 164 165 165 166 167 165 163 158 148 141 128 112 94 63 48 41
229 227 219 218 219 212 209 210 211 213 213 217 215 202 202 208 204 202 195 191 197 193 184 183 180 183 195 197 189 190 194 189 182 171 180 207 213 209 215 216 214 214 218 215 200 194 195 186 182 184 182 181 178 174 172 172 173 172 171 171 172 175 176 172 169 162 152 144 126 97 69 52 47 41
223 220 212 212 217 213 209 210 211 212 211 210 208 206 210 211 215 218 202 191 196 191 185 183 178 184 192 182 174 185 192 181 174 173 186 205 208 205 210 212 208 208 211 205 193 191 190 184 182 181 182 183 178 175 177 178 179 179 177 177 181 182 182 178 173 167 163 157 137 105 80 61 50 40
217 215 210 210 214 212 208 209 212 211 208 206 206 208 212 210 217 217 196 190 191 182 184 185 178 187 192 172 167 181 186 180 174 172 185 195 195 200 202 198 198 201 198 192 190 188 186 183 183 184 186 184 180 180 183 184 185 182 182 185 189 188 187 185 181 180 184 181 171 147 91 45 21 6
215 214 212 210 209 209 209 210 212 210 206 207 209 209 207 204 211 209 189 182 182 173 173 174 170 182 182 162 166 176 171 166 161 162 179 176 160 185 201 189 187 193 190 184 183 183 185 186 187 189 188 186 185 185 187 190 191 189 191 195 199 202 202 200 201 207 213 224 239 255 277 297 311 317
214 211 211 209 206 206 209 209 206 205 206 209 210 211 207 199 201 207 193 177 173 168 166 167 168 176 174 161 168 180 169 153 151 162 175 155 142 171 201 185 177 182 186 182 181 184 186 188 191 192 193 191 191 193 195 198 200 200 204 209 213 219 221 221 228 234 242 254 263 273 283 291 299 303
208 206 207 206 204 203 204 205 202 202 209 211 208 209 211 204 194 190 188 179 175 170 168 169 169 172 171 163 167 178 174 151 150 163 167 149 154 175 187 182 173 173 180 184 186 190 191 194 198 199 202 202 200 203 205 208 212 213 216 223 228 233 237 240 247 255 262 268 272 279 284 288 294 298
209 206 201 199 203 204 202 203 203 204 209 209 208 210 211 206 195 185 180 175 174 171 167 168 168 168 169 165 164 168 164 155 158 166 165 157 165 174 176 187 186 175 183 193 196 199 199 201 205 207 211 214 214 216 218 220 224 227 231 237 243 247 251 256 261 266 270 274 278 283 287 290 295 297
210 206 200 197 201 205 205 205 205 206 206 205 210 215 212 202 193 189 181 168 167 169 165 164 165 165 165 163 163 165 161 159 163 170 169 164 172 174 172 196 216 208 202 206 206 211 212 211 214 215 218 222 224 226 229 232 235 239 243 248 253 258 262 266 269 272 275 278 282 285 288 291 294 297
205 203 200 199 202 205 204 203 205 206 206 206 212 216 215 206 195 191 184 169 165 169 167 165 167 168 168 166 166 168 167 165 165 171 173 169 179 180 171 196 228 232 214 213 213 213 216 217 219 222 224 227 231 234 237 240 244 248 252 256 260 265 269 271 273 276 279 281 283 285 287 289 291 294
201 199 197 199 206 206 201 201 205 204 204 209 213 211 206 203 194 188 183 167 164 171 173 173 174 173 171 170 171 172 171 171 171 174 176 174 184 189 180 195 225 229 206 205 208 210 217 220 222 227 230 233 236 239 241 244 248 251 255 259 262 266 269 273 275 277 278 280 282 283 284 285 287 290
198 195 191 192 204 205 200 202 202 201 200 201 207 207 197 195 190 182 177 169 170 178 180 178 179 181 181 178 176 176 178 182 183 181 183 183 186 192 191 194 211 223 215 210 213 217 221 225 229 233 236 240 242 245 248 249 251 254 257 260 263 266 269 271 273 275 276 277 277 278 280 281 283 284
197 196 190 190 200 203 200 203 200 199 201 199 202 201 185 182 184 180 176 177 178 181 184 184 181 181 185 184 181 182 186 191 193 190 191 192 192 196 198 196 201 212 220 225 233 240 248 251 249 248 248 251 253 254 254 254 253 254 256 258 260 262 263 265 267 268 270 271 271 273 275 276 277 278
197 204 202 198 205 207 204 204 200 199 202 202 203 196 177 173 179 178 176 179 186 190 194 198 193 183 186 192 191 193 198 199 199 196 196 200 201 201 202 202 201 203 209 216 223 242 257 258 253 260 266 261 251 250 254 255 255 255 256 259 261 262 263 265 266 268 269 270 272 274 275 276 277 278
197 209 212 207 209 212 208 206 206 204 203 202 201 195 185 181 186 187 182 179 187 198 199 202 198 190 195 207 204 201 204 204 201 199 202 206 207 207 209 205 199 201 208 214 219 231 236 226 220 237 247 236 229 239 251 253 257 262 262 263 264 266 268 269 271 273 275 276 277 278 279 279 279 280
203 212 209 205 207 207 204 205 208 204 199 197 198 193 188 188 193 196 190 179 174 185 199 202 197 196 209 218 213 211 212 209 207 207 211 214 217 220 218 208 205 215 223 224 224 220 203 198 215 227 228 220 222 234 247 254 267 277 274 269 268 268 269 271 273 275 276 278 279 279 279 279 280 281
208 207 200 200 202 196 193 196 196 191 188 187 187 187 189 191 191 189 187 185 179 174 182 191 189 194 206 205 201 207 212 209 207 212 220 222 224 232 231 210 209 219 220 215 221 225 210 204 215 226 239 237 231 237 249 257 268 275 275 274 276 274 273 273 274 276 280 282 284 285 286 285 285 284
188 191 199 201 190 179 176 173 168 167 171 170 165 170 178 184 188 189 190 197 203 205 205 193 179 188 204 209 207 214 218 217 216 224 233 230 227 237 251 242 226 219 214 216 224 232 229 220 217 227 239 241 245 261 267 265 266 269 272 276 277 277 277 279 282 285 287 288 288 289 290 289 289 288
178 170 171 177 172 168 169 167 161 158 161 162 164 173 180 184 191 197 200 207 219 227 230 235 232 228 234 236 234 233 235 235 233 235 241 242 238 238 233 225 223 223 225 230 224 218 221 220 219 232 241 247 267 287 291 288 279 270 272 277 276 277 281 284 287 287 286 286 286 286 289 291 291 290
187 171 163 164 165 166 169 168 165 164 163 161 165 173 177 180 185 192 202 210 219 228 233 241 243 240 241 241 241 243 244 246 244 234 233 239 237 231 217 207 213 215 211 215 217 219 223 216 213 239 255 261 279 292 294 293 287 282 283 283 281 283 285 285 285 282 279 280 282 286 290 292 294 294
198 180 175 178 175 168 164 162 165 169 164 155 158 167 167 166 172 181 192 207 222 230 233 234 235 235 237 236 238 240 237 237 238 228 231 241 232 218 214 217 216 207 181 178 209 213 206 202 192 239 282 276 274 289 293 293 298 303 301 296 294 292 288 286 281 277 278 281 285 291 294 295 300 300
201 183 176 179 178 165 152 148 155 163 161 154 154 161 169 183 203 206 209 221 230 231 230 229 229 230 233 233 231 231 228 229 235 234 235 241 232 191 149 170 196 208 200 198 214 206 201 206 192 196 263 270 222 235 274 297 314 321 318 311 304 297 288 283 280 276 280 286 291 297 302 305 308 305
189 187 170 159 164 160 151 148 152 161 168 169 160 149 167 235 249 200 204 220 227 232 232 229 230 232 235 237 235 237 239 235 235 234 222 203 181 165 177 212 228 239 239 232 206 182 178 202 212 222 257 228 201 222 270 321 346 353 342 321 307 299 286 273 274 277 277 287 297 301 305 308 307 307
192 190 160 146 151 154 156 159 164 176 190 205 198 170 193 261 266 192 212 220 219 231 233 226 229 235 239 244 245 248 249 239 229 224 216 208 188 168 230 288 264 233 246 252 200 169 160 212 248 249 248 222 221 232 239 359 355 332 328 324 319 317 302 279 281 292 287 286 288 290 300 308 309 312
216 192 160 153 160 165 175 185 198 229 245 250 235 202 214 254 250 197 222 220 214 227 231 222 228 234 237 250 255 251 245 238 235 232 229 231 221 196 191 193 186 209 235 247 214 189 166 192 231 213 230 252 248 230 208 217 293 313 327 338 337 335 330 315 312 320 322 314 296 294 315 325 326 324
189 188 175 177 202 236 253 258 274 282 268 245 231 213 213 233 219 185 195 199 197 204 192 184 212 239 232 237 261 266 258 246 245 245 241 242 238 226 205 170 155 188 221 234 229 211 183 164 226 211 242 284 251 238 235 233 248 354 352 0 360 355 0 358 341 335 336 331 325 332 337 334 334 334
185 197 204 221 247 269 279 280 279 274 263 257 251 229 216 213 191 160 135 116 111 112 115 116 103 85 69 74 91 84 270 249 250 252 249 245 240 233 217 188 167 168 171 157 249 210 164 29 262 223 202 324 280 264 246 208 119 101 4 5 11 6 5 358 341 335 337 331 330 336 337 332 330 331
186 207 217 227 237 253 270 272 265 255 252 250 239 210 193 170 142 129 119 113 103 81 82 117 134 132 123 120 139 167 199 241 269 268 254 248 238 224 217 208 199 196 184 84 39 133 138 100 357 245 188 267 314 300 259 241 17 33 65 6 354 349 352 347 333 331 331 326 328 334 336 333 330 330
181 206 217 230 241 259 275 260 240 226 224 201 147 125 128 126 117 106 93 84 74 73 104 166 183 179 174 179 198 214 221 21 4 356 331 288 265 236 227 229 236 244 228 169 83 66 96 110 77 42 137 125 340 329 270 266 324 9 27 347 333 337 338 332 330 329 325 324 324 324 325 323 320 320
135 207 241 256 254 219 126 143 158 116 112 134 124 108 100 88 76 67 63 67 89 171 191 198 199 201 207 219 226 217 141 104 84 75 72 59 54 59 47 32 11 327 252 163 114 90 83 82 80 95 101 46 324 37 48 294 314 9 14 351 329 326 326 329 335 333 330 331 327 321 318 313 310 314
78 84 83 84 94 95 88 83 89 88 87 96 91 77 68 59 54 53 45 333 238 228 227 226 224 224 223 218 195 152 138 137 133 122 112 104 105 102 88 76 66 51 36 39 73 118 130 108 81 104 134 149 192 75 61 30 350 358 1 353 337 325 326 332 333 329 329 331 327 324 323 318 316 320
39 63 81 86 80 71 65 69 79 77 68 64 60 55 50 41 29 359 314 289 262 245 237 226 221 220 195 153 133 129 129 126 125 127 126 125 124 123 124 124 105 81 67 49 35 55 94 91 72 58 84 105 103 72 52 50 36 3 340 338 336 330 327 327 326 326 327 328 327 326 325 323 321 321
29 26 37 64 70 63 55 61 73 75 72 67 52 26 9 355 341 324 314 297 265 243 227 203 179 163 152 144 137 134 131 131 136 135 130 129 131 132 137 140 141 128 99 88 81 32 32 46 57 50 53 78 95 89 77 48 22 7 350 337 329 325 324 324 324 326 326 325 324 321 319 319 319 317
41 40 38 44 52 53 49 54 69 74 49 344 325 326 321 320 324 329 330 310 250 218 204 187 167 146 124 116 125 136 135 130 129 124 120 121 127 136 145 143 147 153 126 92 122 346 340 352 39 53 43 46 65 102 128 113 24 353 346 346 343 339 339 337 332 329 327 325 322 321 321 320 317 316
34 46 41 29 16 3 340 304 288 290 295 294 296 297 291 297 316 324 325 321 275 220 193 171 150 131 116 120 138 139 124 111 108 108 114 124 125 135 155 154 144 142 141 119 102 83 294 282 276 217 192 221 342 148 135 87 45 33 9 358 358 354 347 344 338 333 333 332 330 332 332 326 321 319
11 19 14 7 351 321 300 292 284 281 286 298 308 305 297 304 321 321 330 31 34 351 158 142 134 128 127 133 135 125 118 123 124 119 139 158 148 127 134 148 145 132 131 133 100 63 68 233 257 233 213 217 216 185 101 17 6 23 38 17 7 360 349 345 341 337 336 336 334 333 330 324 322 320
15 18 11 3 352 331 316 306 297 293 295 300 307 310 314 323 324 319 33 122 165 187 169 146 141 149 146 136 131 126 121 122 121 115 126 141 127 113 114 130 139 133 126 127 112 83 72 53 4 327 304 280 232 170 59 4 354 21 37 16 2 2 356 347 343 341 339 335 332 330 328 325 323 320
16 21 18 13 8 3 359 349 335 332 332 314 297 295 309 316 304 301 21 125 180 176 158 137 133 144 142 126 118 117 115 118 121 116 116 120 118 120 129 134 134 137 135 124 126 121 53 36 33 22 3 352 345 7 14 2 359 21 18 360 352 357 0 352 344 340 337 334 332 330 328 325 322 320
17 19 21 23 23 21 21 14 1 350 343 343 337 322 307 306 306 298 196 142 124 118 122 126 129 133 131 124 126 130 123 124 126 124 126 129 126 129 139 140 149 192 193 149 97 70 84 125 82 18 8 19 31 22 15 354 312 327 349 352 350 354 1 359 349 341 336 335 334 331 328 328 328 329
23 21 21 21 16 9 7 7 360 349 343 350 343 318 316 312 201 178 164 156 139 134 144 145 134 132 133 138 157 159 141 134 138 142 148 153 151 147 144 134 120 208 205 138 52 49 48 276 269 322 22 99 81 52 39 29 307 312 344 350 344 347 357 2 359 351 340 336 337 336 335 338 336 334
25 24 24 24 21 14 7 3 360 356 355 359 7 151 171 217 213 196 176 158 141 135 141 136 128 134 141 137 138 145 141 139 144 149 156 166 165 157 145 122 96 100 117 103 55 48 19 322 356 59 68 69 48 8 354 19 357 334 347 345 338 342 355 1 2 2 352 343 343 341 340 343 341 338
21 20 17 18 20 18 13 12 12 13 15 12 14 54 168 234 207 182 165 146 128 128 135 132 124 127 135 130 127 137 143 143 142 138 134 137 141 137 121 102 100 103 98 96 89 63 28 14 41 51 45 41 27 0 2 51 26 348 348 342 335 341 352 353 355 360 358 352 353 354 350 348 346 344
16 14 10 9 10 9 10 13 13 18 30 36 40 45 40 46 95 118 118 107 113 120 123 122 123 127 129 127 127 132 133 135 138 136 129 123 123 119 109 112 114 103 85 83 89 73 55 45 46 46 39 39 36 24 27 37 4 349 354 344 336 343 349 344 344 354 358 354 353 358 1 358 352 345
12 10 5 3 3 5 6 5 6 19 31 39 53 67 66 63 84 109 120 119 125 137 142 139 139 138 134 137 138 130 128 132 134 131 127 123 119 110 97 101 109 106 99 92 78 71 77 67 56 59 66 56 44 38 31 25 14 5 356 345 342 348 350 339 331 335 345 348 349 354 359 358 353 347
5 8 7 2 358 1 7 6 5 14 29 41 52 63 79 97 105 114 125 129 136 144 142 141 147 151 151 154 153 146 139 136 130 123 118 117 116 110 97 93 92 91 103 116 108 88 84 79 63 61 64 55 45 42 27 15 21 17 355 351 350 346 345 347 337 324 327 335 340 345 348 348 348 347
Height
1518 1519 1521 1522 1524 1527 1529 1530 1532 1532 1534 1535 1535 1537 1537 1538 1538 1539 1540 1541 1542 1544 1545 1546 1546 1547 1548 1548 1549 1549 1550 1550 1551 1552 1553 1553 1554 1555 1556 1557 1558 1559 1560 1561 1562 1563 1564 1565 1566 1567 1569 1570 1571 1571 1572 1572 1573 1573 1574 1575 1575 1576 1576 1576 1576 1576 1577 1577 1577 1577 1577 1577 1578 1578
1516 1517 1519 1521 1523 1525 1527 1528 1530 1531 1532 1534 1535 1536 1536 1537 1537 1537 1538 1539 1540 1541 1543 1544 1546 1546 1546 1546 1547 1548 1548 1549 1550 1551 1552 1552 1553 1554 1554 1555 1557 1558 1558 1559 1561 1562 1563 1564 1565 1566 1568 1569 1570 1571 1571 1572 1572 1573 1574 1574 1575 1575 1575 1576 1576 1576 1576 1576 1576 1577 1577 1577 1577 1577
1516 1517 1519 1521 1523 1524 1526 1527 1528 1530 1531 1533 1534 1535 1536 1535 1535 1536 1537 1538 1539 1540 1541 1543 1545 1545 1545 1545 1547 1548 1547 1548 1549 1550 1551 1551 1552 1553 1554 1555 1556 1557 1558 1558 1560 1561 1562 1563 1565 1566 1567 1568 1569 1570 1571 1571 1572 1573 1573 1574 1574 1574 1575 1575 1575 1575 1575 1576 1576 1576 1576 1577 1577 1577
1515 1517 1519 1520 1522 1523 1525 1527 1528 1530 1531 1532 1533 1534 1534 1534 1533 1535 1536 1537 1539 1540 1541 1543 1544 1544 1544 1545 1547 1547 1547 1547 1548 1549 1550 1550 1551 1552 1553 1554 1555 1556 1557 1558 1559 1560 1561 1563 1564 1565 1566 1567 1568 1569 1570 1571 1571 1572 1573 1573 1573 1574 1574 1574 1575 1575 1575 1575 1575 1575 1576 1576 1576 1576
1515 1517 1518 1519 1521 1523 1525 1526 1527 1529 1530 1531 1531 1532 1533 1533 1532 1533 1535 1537 1538 1540 1541 1542 1543 1543 1544 1545 1547 1547 1546 1547 1548 1549 1550 1550 1551 1552 1552 1553 1554 1555 1556 1557 1558 1559 1561 1562 1564 1565 1566 1567 1567 1568 1569 1570 1571 1571 1572 1572 1573 1573 1574 1574 1574 1574 1574 1574 1575 1575 1575 1575 1575 1575
1515 1516 1517 1519 1520 1522 1523 1524 1525 1527 1528 1529 1530 1530 1531 1532 1531 1532 1534 1536 1538 1539 1540 1541 1543 1543 1544 1545 1546 1546 1546 1547 1547 1548 1549 1550 1551 1553 1553 1552 1554 1555 1556 1557 1558 1559 1560 1561 1563 1564 1565 1566 1566 1567 1568 1569 1570 1570 1571 1571 1572 1572 1573 1573 1573 1573 1573 1574 1574 1574 1574 1574 1574 1574
1514 1515 1516 1517 1519 1521 1522 1523 1524 1525 1526 1528 1529 1529 1530 1530 1530 1532 1534 1535 1536 1538 1539 1541 1542 1543 1544 1545 1545 1545 1545 1546 1547 1548 1549 1550 1552 1553 1553 1553 1553 1555 1556 1557 1558 1559 1560 1561 1562 1563 1564 1565 1566 1566 1567 1568 1569 1569 1570 1570 1571 1571 1571 1571 1572 1572 1572 1572 1572 1572 1572 1572 1572 1572
1514 1514 1515 1516 1518 1519 1520 1521 1522 1523 1525 1526 1527 1528 1528 1530 1531 1531 1533 1534 1536 1537 1539 1540 1542 1543 1543 1544 1545 1545 1545 1545 1547 1548 1549 1550 1552 1553 1553 1553 1553 1554 1556 1556 1557 1558 1559 1560 1561 1562 1563 1564 1565 1565 1566 1567 1567 1568 1569 1569 1569 1570 1570 1570 1570 1571 1571 1571 1571 1571 1571 1571 1571 1571
1513 1514 1515 1516 1517 1518 1519 1520 1521 1523 1524 1525 1526 1526 1528 1529 1530 1531 1532 1534 1536 1538 1539 1540 1541 1542 1543 1544 1544 1545 1545 1545 1547 1548 1549 1550 1551 1552 1553 1553 1553 1554 1555 1556 1557 1558 1558 1559 1560 1561 1562 1563 1563 1564 1565 1566 1566 1567 1567 1568 1568 1568 1569 1569 1569 1569 1569 1569 1569 1569 1569 1569 1569 1569
1512 1513 1514 1515 1516 1517 1518 1519 1520 1522 1523 1524 1524 1526 1527 1528 1530 1530 1531 1534 1536 1538 1539 1539 1540 1541 1542 1543 1543 1544 1545 1545 1546 1548 1549 1550 1551 1551 1552 1553 1552 1553 1554 1555 1556 1557 1557 1558 1559 1560 1560 1561 1562 1563 1563 1564 1565 1565 1566 1566 1566 1567 1567 1567 1567 1567 1568 1567 1567 1567 1567 1567 1567 1567
1511 1512 1513 1514 1515 1516 1517 1518 1519 1521 1521 1522 1523 1525 1526 1527 1529 1529 1531 1533 1535 1536 1537 1538 1539 1540 1541 1541 1542 1543 1544 1545 1546 1547 1548 1549 1550 1550 1551 1551 1551 1552 1553 1554 1555 1556 1556 1557 1558 1558 1559 1560 1560 1561 1561 1562 1563 1563 1564 1564 1565 1565 1565 1565 1565 1566 1566 1565 1565 1565 1565 1565 1565 1565
1509 1510 1511 1512 1514 1514 1515 1517 1518 1519 1520 1521 1522 1524 1525 1527 1528 1529 1530 1532 1533 1534 1536 1537 1538 1539 1539 1540 1541 1542 1543 1544 1545 1546 1547 1548 1549 1549 1550 1551 1551 1551 1551 1553 1553 1554 1555 1556 1556 1557 1558 1558 1558 1559 1560 1560 1561 1561 1562 1562 1563 1563 1563 1563 1563 1563 1563 1563 1563 1563 1563 1562 1562 1562
1508 1509 1509 1511 1512 1513 1514 1516 1517 1518 1519 1521 1522 1524 1525 1527 1528 1529 1530 1531 1532 1533 1534 1535 1537 1537 1538 1539 1540 1541 1541 1542 1543 1544 1545 1547 1548 1548 1549 1550 1551 1551 1551 1552 1552 1553 1554 1555 1555 1555 1556 1557 1557 1557 1558 1558 1558 1559 1559 1560 1560 1561 1561 1561 1561 1561 1561 1560 1560 1560 1560 1559 1559 1559
1508 1508 1509 1511 1512 1513 1514 1515 1517 1518 1519 1521 1522 1524 1525 1527 1528 1528 1528 1529 1530 1532 1533 1534 1535 1536 1537 1538 1538 1539 1540 1541 1542 1543 1544 1545 1546 1547 1548 1548 1550 1550 1551 1552 1552 1552 1552 1553 1554 1555 1554 1554 1555 1555 1555 1555 1556 1557 1557 1557 1558 1558 1558 1558 1558 1558 1558 1558 1557 1557 1557 1556 1556 1556
1508 1508 1510 1511 1512 1513 1514 1515 1516 1518 1519 1520 1522 1523 1524 1526 1528 1528 1527 1528 1529 1530 1531 1533 1533 1535 1536 1537 1537 1538 1538 1539 1540 1541 1542 1543 1544 1545 1546 1547 1547 1548 1549 1550 1551 1552 1552 1552 1554 1554 1552 1551 1552 1552 1552 1553 1554 1555 1555 1555 1555 1555 1555 1555 1555 1555 1555 1555 1555 1555 1554 1554 1553 1553
1508 1509 1511 1511 1511 1513 1514 1515 1516 1517 1519 1520 1521 1523 1524 1525 1527 1527 1526 1527 1528 1529 1530 1532 1533 1534 1535 1536 1536 1537 1537 1537 1538 1540 1541 1542 1543 1543 1543 1544 1545 1546 1547 1548 1549 1550 1551 1551 1552 1552 1551 1550 1550 1551 1551 1552 1553 1553 1553 1553 1553 1553 1553 1553 1553 1553 1553 1553 1552 1552 1552 1551 1551 1550
1510 1510 1511 1511 1511 1513 1514 1515 1516 1517 1519 1520 1521 1522 1523 1524 1525 1526 1526 1527 1527 1528 1529 1530 1532 1533 1534 1535 1536 1536 1536 1536 1537 1538 1539 1540 1541 1541 1541 1542 1543 1544 1545 1546 1547 1548 1549 1549 1549 1549 1550 1550 1550 1550 1551 1551 1551 1551 1551 1551 1551 1551 1551 1550 1550 1550 1550 1550 1550 1550 1550 1549 1549 1548
1510 1511 1511 1511 1512 1513 1514 1515 1516 1517 1519 1520 1520 1521 1523 1524 1525 1526 1526 1527 1527 1528 1528 1529 1531 1532 1533 1533 1534 1535 1536 1535 1536 1537 1538 1538 1539 1539 1541 1542 1542 1543 1544 1545 1545 1546 1547 1547 1547 1548 1549 1549 1549 1550 1550 1550 1550 1549 1549 1550 1549 1549 1549 1549 1549 1548 1548 1548 1548 1548 1548 1548 1547 1547
1510 1511 1511 1512 1512 1512 1513 1515 1515 1517 1518 1519 1520 1521 1522 1524 1524 1525 1526 1526 1527 1528 1528 1529 1530 1531 1532 1533 1533 1534 1534 1534 1535 1536 1537 1537 1538 1539 1540 1541 1541 1543 1544 1544 1544 1544 1545 1546 1546 1547 1547 1548 1548 1548 1548 1548 1548 1548 1548 1549 1549 1548 1548 1548 1547 1547 1546 1546 1546 1546 1546 1546 1545 1544
1512 1511 1511 1511 1511 1512 1514 1515 1516 1516 1517 1519 1520 1521 1522 1523 1524 1524 1525 1526 1526 1527 1528 1529 1530 1530 1531 1532 1532 1533 1533 1533 1534 1535 1536 1536 1537 1538 1539 1539 1539 1541 1542 1542 1543 1543 1544 1545 1546 1546 1546 1546 1546 1546 1547 1547 1547 1547 1547 1547 1547 1547 1547 1547 1546 1545 1545 1544 1544 1544 1544 1544 1543 1543
1512 1512 1512 1512 1512 1513 1515 1515 1516 1517 1517 1519 1521 1522 1522 1523 1523 1524 1525 1525 1526 1526 1527 1528 1528 1529 1530 1531 1531 1532 1532 1532 1533 1534 1534 1535 1536 1536 1537 1537 1538 1539 1540 1541 1542 1543 1544 1545 1546 1546 1546 1546 1546 1545 1545 1545 1546 1546 1546 1546 1546 1546 1546 1545 1545 1544 1544 1543 1543 1542 1542 1542 1541 1541
1513 1513 1513 1514 1514 1515 1516 1516 1517 1517 1518 1520 1521 1522 1522 1523 1523 1524 1524 1525 1525 1526 1526 1527 1528 1528 1529 1530 1530 1530 1531 1531 1532 1532 1533 1534 1535 1535 1536 1536 1537 1538 1539 1540 1541 1542 1543 1544 1545 1546 1546 1547 1546 1545 1544 1545 1545 1545 1545 1545 1545 1545 1544 1544 1543 1543 1542 1542 1541 1541 1541 1540 1540 1539
1514 1514 1515 1515 1515 1517 1518 1518 1518 1518 1520 1521 1522 1522 1523 1523 1523 1523 1524 1524 1525 1525 1526 1527 1527 1528 1529 1529 1529 1529 1530 1530 1531 1531 1532 1533 1534 1535 1535 1536 1537 1537 1538 1539 1540 1541 1542 1543 1544 1545 1545 1546 1546 1545 1545 1544 1544 1544 1544 1543 1543 1544 1543 1542 1542 1541 1541 1541 1541 1540 1540 1539 1539 1539
1516 1516 1517 1516 1517 1518 1518 1518 1519 1520 1521 1521 1522 1522 1523 1523 1523 1523 1524 1524 1525 1525 1525 1526 1527 1528 1528 1529 1529 1529 1529 1530 1530 1531 1532 1532 1533 1534 1535 1536 1536 1536 1537 1539 1540 1540 1542 1543 1543 1544 1544 1545 1544 1544 1544 1545 1544 1544 1544 1543 1542 1543 1542 1541 1541 1541 1540 1540 1540 1539 1539 1539 1538 1538
1517 1518 1518 1518 1519 1519 1519 1520 1520 1521 1521 1522 1522 1522 1523 1523 1523 1524 1524 1525 1525 1525 1526 1527 1527 1528 1529 1529 1529 1529 1529 1530 1530 1531 1531 1532 1532 1533 1534 1536 1536 1535 1536 1538 1539 1540 1541 1542 1542 1542 1543 1544 1544 1543 1543 1544 1544 1543 1543 1543 1542 1542 1541 1541 1540 1540 1540 1539 1539 1539 1539 1538 1538 1538
1519 1520 1520 1520 1520 1520 1520 1521 1521 1521 1522 1522 1522 1522 1522 1523 1524 1524 1524 1525 1525 1526 1526 1527 1528 1529 1530 1530 1529 1529 1529 1530 1530 1530 1531 1531 1532 1533 1534 1535 1535 1534 1535 1536 1537 1539 1540 1540 1540 1541 1542 1542 1543 1543 1542 1543 1544 1543 1542 1542 1542 1542 1542 1541 1541 1540 1539 1539 1539 1539 1538 1538 1537 1537
1520 1520 1520 1521 1521 1521 1521 1521 1521 1522 1522 1522 1522 1522 1522 1523 1524 1524 1525 1526 1526 1527 1527 1528 1529 1530 1531 1531 1531 1530 1530 1530 1530 1530 1530 1531 1531 1532 1533 1534 1533 1533 1535 1536 1537 1538 1539 1539 1539 1540 1541 1541 1542 1543 1542 1542 1543 1543 1542 1542 1542 1542 1542 1542 1542 1541 1540 1540 1539 1538 1538 1537 1536 1536
1520 1520 1521 1521 1521 1521 1521 1522 1522 1522 1522 1522 1522 1522 1523 1523 1524 1525 1526 1526 1527 1527 1528 1530 1531 1531 1532 1532 1531 1531 1531 1531 1531 1531 1531 1531 1531 1532 1533 1533 1533 1533 1534 1536 1536 1537 1538 1539 1540 1539 1539 1540 1541 1542 1542 1542 1542 1542 1542 1542 1542 1542 1542 1543 1542 1542 1541 1540 1539 1538 1537 1536 1535 1535
1520 1521 1521 1521 1521 1521 1522 1522 1522 1521 1521 1521 1522 1522 1523 1524 1525 1525 1526 1526 1527 1529 1530 1531 1531 1531 1531 1531 1531 1531 1532 1532 1532 1532 1532 1532 1532 1532 1532 1533 1533 1534 1534 1535 1537 1538 1538 1539 1539 1539 1540 1540 1541 1541 1542 1543 1542 1541 1540 1542 1542 1542 1542 1542 1542 1541 1540 1540 1540 1539 1538 1537 1536 1534
1521 1521 1521 1521 1521 1521 1522 1522 1522 1521 1522 1522 1523 1523 1523 1524 1525 1525 1526 1527 1529 1530 1531 1531 1531 1531 1531 1531 1531 1532 1533 1533 1533 1533 1533 1533 1533 1533 1534 1534 1534 1534 1534 1535 1536 1538 1538 1538 1539 1540 1540 1541 1540 1540 1541 1542 1542 1541 1541 1541 1542 1542 1542 1542 1541 1541 1540 1540 1539 1539 1538 1537 1536 1535
1521 1521 1521 1521 1522 1522 1522 1522 1522 1522 1523 1523 1524 1524 1525 1525 1526 1527 1528 1529 1530 1530 1531 1531 1530 1530 1531 1531 1532 1532 1533 1533 1533 1533 1534 1534 1535 1535 1536 1536 1536 1536 1536 1536 1537 1537 1538 1539 1539 1539 1540 1540 1540 1540 1541 1541 1542 1541 1542 1542 1542 1542 1542 1541 1541 1541 1540 1539 1539 1538 1537 1537 1536 1535
1523 1523 1522 1522 1523 1523 1523 1523 1523 1523 1524 1525 1526 1526 1527 1527 1527 1528 1528 1529 1529 1530 1530 1530 1530 1531 1531 1532 1532 1532 1532 1533 1533 1533 1534 1534 1535 1535 1536 1537 1537 1537 1538 1538 1538 1538 1538 1539 1539 1539 1539 1539 1540 1541 1541 1541 1542 1542 1542 1542 1542 1542 1542 1541 1541 1540 1539 1538 1538 1537 1537 1536 1536 1535
1525 1525 1524 1524 1524 1525 1525 1525 1525 1525 1526 1527 1527 1528 1528 1528 1528 1528 1528 1529 1529 1529 1530 1530 1531 1531 1531 1532 1532 1533 1533 1532 1532 1533 1533 1534 1535 1535 1536 1537 1538 1538 1539 1539 1539 1539 1539 1539 1539 1539 1539 1539 1540 1541 1541 1542 1542 1542 1542 1542 1542 1542 1541 1541 1540 1540 1539 1538 1537 1537 1536 1536 1535 1535
1527 1526 1526 1526 1526 1526 1527 1527 1527 1527 1527 1528 1528 1528 1528 1528 1528 1528 1528 1529 1529 1529 1530 1530 1531 1531 1532 1533 1533 1533 1533 1532 1532 1532 1533 1534 1535 1535 1536 1537 1538 1538 1539 1540 1540 1540 1539 1539 1539 1539 1539 1539 1540 1540 1541 1541 1542 1542 1541 1541 1541 1541 1540 1540 1539 1538 1538 1537 1537 1536 1535 1535 1534 1534
1528 1528 1528 1528 1528 1528 1528 1528 1528 1528 1528 1528 1528 1528 1529 1529 1528 1528 1529 1529 1529 1530 1530 1530 1531 1532 1533 1533 1533 1533 1533 1533 1533 1533 1534 1534 1535 1535 1536 1537 1538 1539 1539 1540 1540 1540 1540 1539 1539 1539 1539 1539 1539 1539 1540 1540 1541 1541 1541 1541 1540 1540 1539 1538 1538 1537 1537 1536 1536 1535 1534 1534 1533 1533
1529 1529 1529 1528 1528 1529 1529 1529 1529 1529 1529 1529 1529 1529 1529 1529 1529 1529 1529 1529 1530 1531 1531 1531 1532 1532 1533 1533 1533 1533 1534 1534 1534 1534 1533 1534 1534 1534 1536 1537 1538 1539 1539 1540 1540 1540 1540 1540 1540 1540 1540 1539 1538 1538 1538 1539 1540 1540 1540 1540 1539 1539 1538 1538 1537 1537 1536 1536 1535 1535 1534 1533 1533 1532
1530 1530 1530 1530 1530 1529 1529 1529 1530 1529 1530 1530 1529 1529 1529 1529 1529 1529 1530 1530 1530 1531 1531 1531 1532 1533 1533 1532 1533 1533 1533 1533 1534 1534 1534 1534 1534 1535 1536 1537 1538 1539 1540 1540 1540 1540 1541 1541 1540 1540 1540 1540 1539 1539 1538 1538 1538 1539 1539 1539 1538 1537 1537 1537 1536 1536 1536 1535 1535 1534 1534 1533 1532 1531
1533 1532 1532 1532 1531 1531 1531 1530 1530 1530 1530 1530 1530 1530 1530 1530 1530 1530 1530 1530 1530 1531 1531 1531 1532 1532 1532 1533 1533 1533 1533 1533 1534 1534 1535 1535 1536 1536 1537 1538 1539 1539 1540 1540 1540 1541 1541 1541 1540 1540 1540 1540 1540 1539 1539 1539 1538 1538 1539 1538 1537 1537 1536 1536 1535 1535 1535 1535 1534 1533 1533 1532 1531 1530
1534 1533 1533 1532 1532 1531 1531 1531 1531 1531 1531 1531 1531 1530 1530 1530 1530 1531 1531 1531 1531 1531 1532 1532 1532 1532 1533 1533 1534 1534 1534 1534 1535 1536 1536 1537 1537 1537 1538 1538 1539 1539 1539 1539 1539 1540 1540 1540 1540 1540 1540 1540 1540 1540 1540 1539 1538 1537 1537 1537 1537 1536 1536 1535 1535 1534 1534 1534 1533 1533 1532 1531 1530 1529
1535 1534 1533 1532 1532 1532 1532 1532 1532 1532 1531 1531 1531 1531 1531 1531 1531 1531 1531 1531 1531 1532 1532 1532 1532 1533 1533 1534 1534 1534 1534 1535 1536 1536 1536 1536 1536 1536 1537 1538 1538 1539 1539 1539 1539 1539 1539 1538 1538 1539 1539 1539 1539 1539 1539 1539 1539 1538 1537 1536 1535 1536 1536 1535 1534 1534 1534 1533 1533 1532 1531 1530 1529 1528
1536 1535 1534 1534 1533 1533 1533 1533 1533 1532 1531 1531 1530 1530 1531 1531 1530 1530 1531 1531 1532 1533 1533 1533 1533 1533 1534 1534 1534 1535 1535 1536 1536 1536 1536 1536 1536 1536 1537 1538 1539 1540 1540 1540 1540 1540 1539 1538 1538 1538 1538 1538 1538 1538 1539 1539 1540 1539 1538 1536 1535 1535 1535 1534 1534 1534 1533 1533 1532 1531 1530 1529 1528 1527
1538 1537 1536 1535 1535 1535 1534 1533 1533 1532 1532 1531 1531 1531 1531 1530 1530 1531 1531 1532 1532 1533 1533 1533 1534 1534 1534 1535 1535 1536 1536 1536 1536 1537 1537 1537 1537 1538 1538 1539 1539 1540 1540 1540 1540 1540 1539 1538 1538 1538 1538 1538 1539 1539 1539 1539 1540 1540 1539 1538 1536 1535 1535 1534 1534 1533 1532 1532 1531 1531 1530 1529 1528 1527
1539 1538 1538 1536 1536 1535 1534 1534 1533 1532 1532 1531 1531 1531 1531 1531 1531 1532 1532 1533 1533 1534 1534 1534 1535 1535 1536 1536 1536 1536 1536 1537 1537 1537 1538 1538 1538 1538 1538 1538 1538 1539 1540 1540 1540 1539 1539 1539 1539 1539 1539 1539 1539 1539 1539 1539 1539 1539 1539 1538 1537 1535 1535 1534 1533 1532 1532 1531 1530 1530 1529 1528 1528 1527
1540 1540 1539 1538 1537 1536 1535 1534 1533 1532 1532 1532 1532 1532 1533 1533 1533 1533 1534 1534 1534 1535 1535 1535 1536 1536 1536 1537 1537 1537 1537 1537 1537 1537 1537 1537 1538 1538 1538 1538 1538 1539 1539 1540 1540 1540 1540 1540 1540 1540 1540 1539 1539 1539 1539 1539 1539 1539 1539 1538 1536 1536 1535 1534 1533 1532 1531 1530 1530 1529 1528 1527 1527 1526
1541 1540 1540 1539 1537 1536 1535 1535 1534 1533 1533 1533 1533 1533 1533 1533 1534 1534 1534 1535 1535 1535 1535 1536 1536 1536 1536 1537 1537 1537 1537 1537 1537 1537 1537 1538 1538 1539 1539 1539 1539 1538 1538 1539 1539 1540 1540 1540 1540 1540 1540 1540 1540 1540 1539 1539 1539 1539 1539 1538 1537 1536 1536 1534 1533 1531 1530 1529 1529 1528 1527 1526 1526 1525